SL-16 DEB, 22330

Orbit data source: Space-Track

SL-16 DEB, 22330 is space debris in LEO originally from a launch on Fri, 25 Dec 1992 UTC launched from the Tyuratam Missile And Space Complex (TTMTR). Debris objects in space refer to the collection of defunct objects orbiting the Earth. Examples of debris include non-operational satellites, rocket bodies, and fragments generated from explosions, collisions, or faulty payload assembly.

Loading next visibility...
Identifier
22330, 1992-093T
Orbit
LEO
Country
Flag of CISCIS
Related business
Manufacturer
Unknown
Mission
Spacecraft
Bus & Motor
Unknown
Mass
Unknown
Launch date (UTC)
1992-12-25 (33 years ago)
Launch vehicle
Unknown
Launch site
Tyuratam Missile And Space Complex (TTMTR)
Object type
Payload
Rocket body
Debris
Shape & HBR
Unknown shape, 0.3 m
Radar Cross Section
Small (<0.1 m²)

Expand to show TLE details & history
Last TLE update: 22 hours ago

TLE from 22 hours ago
0 SL-16 DEB
1 22330U 92093T   25305.47891278  .00000737  00000-0  42608-3 0  9994
2 22330  70.4166 343.2058 0114016 334.8322 144.7569 14.09352023682033
Epoch: 2025-11-01T11:29Z
TLE epoch observation values (Epoch: 2025-11-01T11:29:38.064Z)
Latitude
54.51739°
Longitude
-79.97816°
Altitude
937.737 km
Speed
7.354 km/s
True Right ascension
08h 53m 45s
True Declination
54° 21' 31"
Sunlit
Object was in daylight at epoch
Visualization orbit readout
Latitude
Unknown
Longitude
Unknown
Altitude
Unknown
Speed
Unknown
Apparent Right ascension
Unknown
Apparent Declination
Unknown
Sunlit
N/A
Visualization observer readout
Local Sidereal Time
05:09:30
Azimuth
Unknown
Elevation
Unknown
Doppler factor
Unknown
Orbital elements
Apogee altitude
942.099 km
Perigee altitude
777.056 km
Semi-major axis
7,237.715 km
Eccentricity
0.0114
Inclination
70.4166°
RAAN
343.2058°
Arg. of periapsis
334.8322°
True anomaly
145.50213°
Mean anomaly
144.7569°
Eccentric anomaly
145.13038°
Mean motion
3.52485 °/min
Orbital period
102.13 mins
BSTAR
0.00042608
Loading maneuver chart data...
Computing Atmospheric mass density...
Loading historical data...
Loading historical data...
Loading historical data...
Loading historical data...
Loading historical data...
Loading historical data...
Loading historical data...

Documentation

Showing up to 5 results
|